Regional Weather Roundup
Issued by NWS New Orleans/Baton Rouge, LA

Home | Current Version | Previous Version | Text Only | Print | Product List | Glossary On
Versions: 1 2 3 4 5 6 7 8 9 10 11 12 13 14 15 16 17 18 19 20 21 22 23 24 25 26 27 28 29 30 31 32 33 34 35 36 37 38 39 40 41 42 43 44 45 46 47 48 49 50
000
ASUS44 KLIX 300311
RWRLIX
NEW ORLEANS REGIONAL WEATHER ROUNDUP
NATIONAL WEATHER SERVICE NEW ORLEANS LA
1000 PM CDT SUN MAR 29 2015

NOTE: "FAIR" INDICATES FEW OR NO CLOUDS BELOW 12,000 FEET WITH NO
      SIGNIFICANT WEATHER AND/OR OBSTRUCTIONS TO VISIBILITY.
      SKY/WX - SKY CONDITION AND SIGNIFICANT WEATHER.
      TMP - AIR TEMPERATURE.     DP    - DEWPOINT TEMPERATURE.
      RH  - RELATIVE HUMIDITY.   PRES  - PRESSURE.
      HI  - HEAT INDEX.          WCI   - WIND CHILL INDEX.

*  THESE STATIONS ARE NOT NWS OR FAA STATIONS AND ARE NOT UNDER
   NWS QUALITY CONTROL.

LAZ038-040-048-061>063-065>067-069-300400-
SOUTHEAST LOUISIANA

CITY           SKY/WX    TMP DP  RH WIND       PRES   REMARKS
N.O. AUDUBON     N/A     67  67 100 MISG        N/A
N.O. INTL ARPT MOCLDY    67  63  87 S8        30.22R
N.O. LAKEFRONT PTCLDY    68  62  81 S9        30.23R
SLIDELL        CLEAR     67  63  87 S10       30.22R
BATON ROUGE    CLEAR     68  58  70 S10       30.19S
BOOTHVILLE     CLEAR     67  63  87 SE9       30.25S
BELLE CHASSE   CLEAR     66  62  87 S7        30.22R
BOGALUSA*        N/A     66  60  80 S7        30.22S
GALLIANO*      CLEAR     67  65  91 MISG      30.23S
NEW ROADS*       N/A     67  60  79 S5        30.19R
GONZALES*        N/A     66  60  81 S3        30.21R
HAMMOND*       CLEAR     64  57  77 S3        30.22S
HOUMA*         CLEAR     65  64  93 S5        30.22S
PORT FOURCHON* CLEAR     72  66  83 S6        30.26S

$$

MSZ070-080>082-300400-
SOUTHERN MISSISSIPPI

CITY           SKY/WX    TMP DP  RH WIND       PRES   REMARKS
MCCOMB         CLEAR     64  60  87 S6        30.19R
GULFPORT       CLEAR     67  61  81 S8        30.23S
BILOXI         CLEAR     66  62  87 S10       30.23F
PASCAGOULA     PTCLDY    65  60  84 S7        30.24F

$$

COASTAL OBSERVATIONS
LAKE AND NEARSHORE STATIONS

STATION/POSITION TIME  TEMP    WIND        PRES    WAVE
                       AIR SEA DIR/SP/G            HT/PER
                 (UTC) (F)     (DEG/KT/KT) (MB)    (FT/S)
PASCAGOULA       0200   67     160/  5/  9 1023.9
WAVELAND YACHT   0200   67 66  180/  8/ 14 1023.2
GRAND ISLE       0200   69 70  160/  5/  6 1023.4
SOUTHWEST PASS   0200   68 54  170/ 10/ 15 1024.5
NEW CANAL        0200   69     170/  4/  6 1023.6
SHELL BEACH      0200   67 69  160/ 10/ 13 1023.5

OFFSHORE STATIONS

STATION/POSITION TIME  TEMP    WIND        PRES    WAVE
                       AIR SEA DIR/SP/G            HT/PER
                 (UTC) (F)     (DEG/KT/KT) (MB)    (FT/S)
64 S DAUPHIN ISL 0250   69 70  170/ 16/ 19 1025.0    3/ 4

$$




USA.gov is the U.S. government's official web portal to all federal, state and local government web resources and services.